TimeEDT,TemperatureF,Dew PointF,Humidity,Sea Level PressureIn,VisibilityMPH,Wind Direction,Wind SpeedMPH,Gust SpeedMPH,PrecipitationIn,Events,Conditions,WindDirDegrees,DateUTC
12:56 AM,54.0,41.0,62,29.82,10.0,West,6.9,-,N/A,,Clear,280,2012-10-21 04:56:00
1:56 AM,53.1,41.0,64,29.82,10.0,Calm,Calm,-,N/A,,Clear,0,2012-10-21 05:56:00
2:56 AM,46.0,43.0,89,29.83,10.0,Calm,Calm,-,N/A,,Clear,0,2012-10-21 06:56:00
3:56 AM,46.9,43.0,86,29.83,10.0,Calm,Calm,-,N/A,,Clear,0,2012-10-21 07:56:00
4:56 AM,48.9,39.9,71,29.84,10.0,West,3.5,-,N/A,,Clear,270,2012-10-21 08:56:00
5:56 AM,48.9,39.9,71,29.86,10.0,West,4.6,-,N/A,,Clear,270,2012-10-21 09:56:00
6:56 AM,46.9,41.0,80,29.88,10.0,West,5.8,-,N/A,,Clear,270,2012-10-21 10:56:00
7:56 AM,46.9,43.0,86,29.91,8.0,Calm,Calm,-,N/A,,Clear,0,2012-10-21 11:56:00
8:56 AM,52.0,43.0,71,29.93,10.0,WSW,8.1,-,N/A,,Clear,250,2012-10-21 12:56:00
9:56 AM,55.0,43.0,64,29.92,10.0,WSW,8.1,-,N/A,,Clear,240,2012-10-21 13:56:00
10:56 AM,57.9,42.1,56,29.92,10.0,NW,11.5,17.3,N/A,,Clear,310,2012-10-21 14:56:00
11:56 AM,60.8,41.0,48,29.91,10.0,WNW,13.8,19.6,N/A,,Partly Cloudy,300,2012-10-21 15:56:00
12:56 PM,63.0,41.0,45,29.89,10.0,West,11.5,17.3,N/A,,Clear,280,2012-10-21 16:56:00
1:56 PM,64.9,39.9,40,29.88,10.0,WNW,12.7,20.7,N/A,,Mostly Cloudy,290,2012-10-21 17:56:00
2:56 PM,62.1,46.9,58,29.87,10.0,WSW,6.9,18.4,N/A,,Mostly Cloudy,240,2012-10-21 18:56:00
3:56 PM,64.9,39.0,39,29.88,10.0,WNW,13.8,24.2,N/A,,Mostly Cloudy,300,2012-10-21 19:56:00
4:56 PM,64.0,37.9,38,29.88,10.0,WNW,9.2,-,N/A,,Partly Cloudy,300,2012-10-21 20:56:00
6:56 PM,57.9,39.9,51,29.91,10.0,West,5.8,-,N/A,,Mostly Cloudy,260,2012-10-21 22:56:00
7:56 PM,59.0,39.9,49,29.92,10.0,West,8.1,-,N/A,,Overcast,270,2012-10-21 23:56:00
8:56 PM,59.0,39.0,48,29.93,10.0,West,9.2,-,N/A,,Overcast,270,2012-10-22 00:56:00
9:56 PM,57.9,39.0,49,29.93,10.0,West,10.4,-,N/A,,Scattered Clouds,270,2012-10-22 01:56:00
10:56 PM,57.0,39.0,51,29.95,10.0,West,6.9,-,N/A,,Clear,280,2012-10-22 02:56:00